Dewpoint
59 59 58 59 58 58 58 57 55 52 52 54 55 56 56 56 56 56 56 55 56 57 58 58 58 58 57 58 57 56 53 51 50 50 49 49 49 49
58 58 58 58 58 58 58 58 58 56 53 55 55 55 53 53 54 54 54 53 55 56 56 56 56 55 56 56 55 53 51 50 49 49 49 48 48 48
57 57 57 55 56 56 56 57 56 56 53 54 54 53 53 53 53 53 53 53 53 54 56 56 55 54 55 54 53 51 49 49 48 48 47 47 47 47
48 49 49 50 51 52 53 52 52 52 51 50 52 51 50 51 51 51 50 50 51 52 54 55 54 54 53 52 51 49 48 47 46 46 45 45 45 45
47 47 47 46 47 47 47 47 48 48 49 48 47 50 50 49 48 48 48 49 48 49 51 53 54 54 53 52 51 49 47 46 45 43 42 42 42 43
43 43 43 42 42 43 43 44 44 45 44 44 44 44 46 47 46 45 44 45 45 46 47 49 52 53 52 52 50 48 47 45 44 43 41 40 40 40
39 39 41 40 42 42 41 41 40 40 40 41 42 42 41 43 43 44 44 45 45 45 44 45 47 48 50 51 49 47 46 44 44 42 41 40 40 39
37 37 37 38 38 41 42 41 39 38 37 37 38 38 38 42 43 44 44 43 41 44 43 43 44 45 47 48 48 47 45 44 43 41 40 39 38 39
34 33 32 29 34 35 35 36 36 38 40 37 37 38 38 40 41 41 42 43 43 44 41 40 42 41 44 45 48 47 45 45 43 41 39 38 37 38
31 30 29 30 33 33 32 33 32 32 33 34 35 37 39 40 41 41 42 42 43 38 40 37 36 38 39 38 44 47 45 43 42 41 39 37 37 37
29 29 29 29 33 34 32 32 30 31 33 36 36 38 39 41 42 42 39 38 38 37 37 36 34 34 35 35 37 44 43 42 41 39 36 35 36 36
27 27 32 30 33 33 30 29 29 30 32 32 34 36 38 38 41 40 40 37 37 34 35 35 32 32 32 32 34 37 40 42 41 39 35 34 34 36
26 25 26 31 33 32 32 29 30 31 31 34 35 36 37 37 38 39 39 38 36 36 36 35 32 32 32 30 32 32 36 38 37 35 34 31 33 35
27 27 29 32 31 31 30 31 31 31 29 30 32 34 35 35 37 37 36 36 37 35 36 34 32 32 32 29 29 32 32 34 34 32 31 29 31 32
29 30 32 30 30 29 29 30 29 30 28 28 29 31 35 36 34 34 33 33 32 32 33 34 33 32 32 31 30 31 31 32 32 31 28 29 29 28
30 31 30 28 28 28 28 28 28 29 27 29 30 31 34 34 33 33 32 32 32 30 30 32 32 32 32 32 32 30 31 30 31 30 29 29 27 29
30 30 29 27 26 26 27 27 28 28 28 29 29 30 32 33 33 33 32 32 31 31 28 29 31 31 31 32 30 31 31 30 30 29 29 28 28 28
29 28 26 26 25 25 25 25 27 26 27 28 29 30 30 32 32 32 32 31 30 31 29 28 29 29 30 30 34 30 30 29 29 29 30 27 27 27
27 27 26 26 25 24 25 26 26 27 28 28 28 29 31 31 32 32 31 31 31 32 31 29 29 30 27 26 28 31 29 28 27 27 28 28 28 28
27 26 25 25 23 25 25 26 25 26 26 27 28 29 31 31 31 31 31 31 31 31 29 30 29 30 30 28 26 26 31 28 27 28 28 29 30 32
25 25 24 24 24 25 25 24 24 24 25 26 27 28 30 30 31 32 31 32 32 30 28 28 30 34 31 30 25 25 28 32 31 29 28 27 26 27
23 23 23 25 25 25 25 24 24 24 23 24 26 27 28 30 31 31 32 30 30 29 30 30 30 30 29 29 25 24 26 29 31 31 30 29 29 24
24 24 24 25 25 25 24 23 23 24 24 24 25 27 27 28 31 31 32 31 31 29 28 27 28 29 28 28 25 25 25 26 27 27 30 31 31 32
Lifted_Index
3 3 3 3 2 2 2 2 2 2 2 2 2 2 2 2 3 3 3 3 3 3 3 4 4 4 4 4 5 6 7 7 7 9 10 10 10 11
3 3 3 3 2 2 2 2 2 2 2 2 3 3 3 3 4 4 4 4 4 4 4 4 4 4 4 5 6 7 7 7 8 9 10 10 11 11
2 3 3 3 2 2 2 2 2 2 3 3 4 4 5 5 5 5 5 5 5 4 4 4 4 4 4 4 5 7 8 8 9 10 10 10 11 12
2 2 2 2 2 2 2 3 3 4 5 5 6 6 7 7 7 7 7 6 6 5 5 4 4 4 4 4 5 6 7 8 9 10 10 10 11 12
4 4 4 4 4 5 6 6 7 8 9 9 9 10 10 10 10 9 9 8 8 7 6 6 5 5 5 5 5 6 7 8 9 9 10 10 11 12
9 9 9 10 10 11 12 12 12 12 13 13 12 12 12 12 12 11 11 10 10 9 8 7 6 6 6 6 6 6 6 7 8 8 9 9 10 11
14 14 15 15 16 16 16 16 16 15 15 15 15 14 14 14 13 13 12 12 11 10 9 8 8 7 7 7 7 6 6 6 7 7 8 9 10 11
17 17 17 18 18 18 18 18 18 17 17 17 16 16 15 15 14 14 14 13 12 12 11 10 9 9 8 8 7 5 5 6 6 7 8 9 10 11
18 18 19 19 19 19 19 20 19 19 19 19 18 18 17 16 16 16 15 14 13 13 12 11 11 10 9 7 6 5 5 6 7 7 8 9 10 12
19 19 20 20 20 20 21 21 21 21 20 20 20 19 19 18 17 17 16 15 14 14 13 12 12 10 8 6 5 5 6 7 7 7 8 9 11 13
20 20 20 21 21 21 21 22 21 21 21 21 21 20 20 19 18 17 16 16 15 14 13 12 10 7 5 4 5 6 7 7 7 8 8 10 12 14
20 21 21 21 21 22 22 22 22 22 22 21 21 20 20 19 18 17 17 16 15 14 12 9 6 4 3 4 5 6 7 8 8 8 9 11 14 16
20 21 21 21 21 22 22 22 22 22 22 21 21 20 20 19 18 17 17 16 14 12 9 6 4 3 3 4 5 6 7 8 9 9 10 12 15 16
21 21 21 21 21 21 21 21 21 22 21 21 21 20 19 18 18 17 16 15 11 8 6 5 4 4 4 4 5 6 8 9 10 10 11 14 15 16
21 21 21 21 21 21 21 21 21 21 21 20 20 19 19 18 18 16 15 12 8 6 5 5 5 5 5 5 6 7 8 9 10 11 13 15 15 15
21 21 21 21 21 21 21 21 21 21 21 20 19 18 18 18 17 15 12 9 6 5 5 5 6 6 7 7 7 7 8 9 10 12 14 15 15 14
20 20 20 20 20 20 20 21 21 20 20 19 19 18 18 17 15 12 9 7 5 5 5 6 7 7 8 8 8 8 9 10 11 13 13 14 14 14
19 19 19 19 19 19 19 20 20 19 19 19 19 18 17 16 13 10 7 6 5 5 5 6 7 7 8 8 9 10 10 11 13 14 13 12 12 13
18 18 18 18 18 18 19 19 19 19 19 19 19 18 16 13 10 8 7 6 6 5 6 7 7 8 8 8 10 11 12 13 13 13 13 12 12 13
18 18 18 18 18 18 18 18 18 19 19 19 18 17 14 11 8 7 7 7 6 6 6 7 8 9 9 9 10 12 14 14 14 13 12 12 12 13
17 17 17 18 18 18 18 18 18 19 19 18 17 15 12 9 7 7 7 7 7 7 7 8 9 10 10 10 10 11 14 15 15 14 13 13 12 11
17 17 17 17 18 18 18 18 18 18 18 17 15 13 10 8 7 7 7 8 8 7 8 9 10 11 11 11 10 11 13 14 14 14 14 13 12 11
16 16 17 17 18 18 18 18 18 18 17 16 14 11 9 8 8 8 8 8 8 8 8 9 10 11 12 11 11 11 13 13 13 13 14 14 13 12